sat.trackr.live / text

‹ back to catalog

IMECE

NORAD 56178 · 2023-054A

PAYLOAD ACTIVE UNKNOWN

§ Identity

Operator
Country
TURK
Launch date
2023-04-15
Launch site
AFWTR
Launch vehicle
Mass (kg)
RCS (m²)

External: N2YO · Heavens-Above · Gunter

§ Orbital elements

Epoch: 2026-05-25T05:14:45.741408Z

Period
98.24 min
Inclination
98.1247°
Eccentricity
0.0008391
Mean motion
14.65830453 rev/d
Perigee alt
668.5 km
Apogee alt
680.3 km
Semi-major
7,052.5 km
B*
5.2095e-5
RAAN
50.2888°
Arg perigee
239.2923°
Mean anomaly
120.7454°
Rev number
16,704

§ Raw data

IMECE1 56178U 23054A   26145.21858497  .00000236  00000+0  52095-4 0  99982 56178  98.1247  50.2888 0008391 239.2923 120.7454 14.65830453167042

JSON: /api/v1/satellites/56178 · /tle

For live sub-satellite position, see the globe view (requires WebGL).

§ Visibility from observer

Set your observer location to see the next 7 days of passes ≥ 10°. The values pass through the URL so the page stays shareable.

No JS? Fill the form by hand. The geolocation button needs JavaScript.